Lexington Weather

Lexington, Massachusetts, USA

44°F
4/22/2024 9:04am 
  • Lexington Conditions: Clear
  • Temperature: 44.1°F / 6.7°CWarmer 3.6°F than last hour.
  • Dew Point: 28.0°F 
  • Relative Humidity: 53%Decreased 8.0% since last hour.
  • Wind: Calm, 10-min avg: Calm, gust: 2 mph
  • Barometer: 29.96 in Steady
  • Visibility: 10 miles
  • Rain Today: 0.00 in
  •   

Regional Weather Roundup
for Boston, MA

        
000
ASUS41 KBOX 191810
RWRBOX

REGIONAL WEATHER ROUNDUP
NATIONAL WEATHER SERVICE BOSTON/NORTON MA
200 PM EDT FRI APR 19 2024

NOTE:  "FAIR" INDICATES FEW OR NO CLOUDS BELOW 12,000 FEET WITH NO 
SIGNIFICANT WEATHER AND/OR OBSTRUCTIONS TO VISIBILITY.

MAZALL-191900-
EASTERN MASSACHUSETTS
  
CITY           SKY/WX    TMP DP  RH WIND       PRES   REMARKS
BOSTON         CLOUDY    51  41  68 E20       30.13F                  
6HR MIN TEMP:  45; 6HR MAX TEMP:  52;                                

BEVERLY        MOSUNNY   50  36  58 SE16G22   30.14F                  
LAWRENCE       MOSUNNY   55  34  45 SE10G17   30.13F                  
BEDFORD        MOSUNNY   55  37  50 E14       30.10F                  
NORWOOD        MOSUNNY   61  36  39 S10G17    30.11F                  
MARSHFIELD     MOSUNNY   52  36  54 E12G17    30.15F                  
PLYMOUTH       MOSUNNY   57  36  45 SE9G17    30.13F                  
TAUNTON        MOSUNNY   60  35  39 SE9G18    30.13F                  
NEW BEDFORD    MOSUNNY   55  34  45 SE12      30.14F                  
$$

MAZALL-191900-
CAPE COD AND THE ISLANDS
  
CITY           SKY/WX    TMP DP  RH WIND       PRES   REMARKS
FALMOUTH       NOT AVBL                                               
HYANNIS        CLOUDY    52  34  50 SE8       30.16R                  
CHATHAM        PTSUNNY   52  35  52 VRB7G16   30.18R                  
PROVINCETOWN   MOSUNNY   54  37  52 SE8       30.18S                  
NANTUCKET      MOSUNNY   52  40  63 E16G24    30.16R                  
MARTHAS VNYRD  PTSUNNY   54  40  59 E10       30.15F                  
$$
 
MAZALL-191900-
CENTRAL AND WESTERN MASSACHUSETTS
  
CITY           SKY/WX    TMP DP  RH WIND       PRES   REMARKS
WORCESTER      PTSUNNY   56  29  35 S10G21    30.09F                  
6HR MIN TEMP:  42; 6HR MAX TEMP:  58;                                

FITCHBURG      PTSUNNY   59  33  37 SE8       30.09F                  
ORANGE         PTSUNNY   61  34  36 S16G22    30.08F                  
SPRINGFIELD    PTSUNNY   61  32  34 S8G20     30.06F                  
WESTFIELD      PTSUNNY   59  31  34 S13G22    30.08F                  
NORTH ADAMS    CLOUDY    60  37  42 SE16G24   30.04F                  
PITTSFIELD     PTSUNNY   55  36  48 S9G23     30.03F                  
$$
 
RIZALL-191900-
RHODE ISLAND
  
CITY           SKY/WX    TMP DP  RH WIND       PRES   REMARKS
PROVIDENCE     PTSUNNY   54  36  50 S14G21    30.13F                  
6HR MIN TEMP:  45; 6HR MAX TEMP:  56;                                

NEWPORT        PTSUNNY   51  36  56 SE15G22   30.13F                  
BLOCK ISLAND   PTSUNNY   47  39  74 E14G20    30.15F                  
SMITHFIELD     PTSUNNY   55  32  41 SE10G18   30.12F                  
WESTERLY       NOT AVBL                                               
$$
 
CTZALL-191900-
CONNECTICUT
  
CITY           SKY/WX    TMP DP  RH WIND       PRES   REMARKS
BRADLEY INTL   PTSUNNY   63  30  28 S14       30.09F                  
6HR MIN TEMP:  48; 6HR MAX TEMP:  64;                                

HARTFORD       PTSUNNY   58  31  35 S21       30.09F                  
PLAINVILLE     FAIR      58  27  30 S8        30.10F                  
BRIDGEPORT     PTSUNNY   51  43  74 E14       30.13F                  
DANBURY        PTSUNNY   56  41  57 SE12      30.10F                  
GROTON         PTSUNNY   52  37  56 E15G23    30.14F                  
NEW HAVEN      PTSUNNY   55  40  56 E16G23    30.12F                  
CHESTER        PTSUNNY   55  30  38 SE9G17    30.12F                  
MERIDEN        PTSUNNY   58  30  34 S10G24    30.11F                  
WILLIMANTIC    PTSUNNY   57  30  35 S14G21    30.12S                  
OXFORD         PTSUNNY   53  38  56 SE13      30.12F                  
$$

MEZ002-015-021-024-NHZ003-005-008-011-012-014-VTZ005-008-191900-
NORTHERN NEW ENGLAND
  
CITY           SKY/WX    TMP DP  RH WIND       PRES   REMARKS
PORTLAND ME    CLOUDY    50  37  61 S13       30.17R                  
6HR MIN TEMP:  46; 6HR MAX TEMP:  51;                                

BANGOR ME      SUNNY     58  33  39 S17G25    30.11F                  
CONCORD NH     PTSUNNY   57  35  43 SE9G18    30.09F                  
MANCHESTER NH  PTSUNNY   59  34  39 S6G17     30.08F                  
NASHUA NH      PTSUNNY   59  35  40 SE7G16    30.10F                  
PORTSMOUTH NH  PTSUNNY   53  35  51 SE14      30.14F                  
JAFFREY NH     PTSUNNY   58  35  42 S13G18    30.08F                  
KEENE NH         N/A     59  35  40 S7G20     30.07F                  
BURLINGTON VT  CLOUDY    56  39  53 S20G29    29.96F                  
MT. WASHINGTON FOG       34  32  93 SW23G37     N/A  VSB 1/8 WCI  22  
$$

NYZ052-076-191900-
EASTERN NEW YORK
  
CITY           SKY/WX    TMP DP  RH WIND       PRES   REMARKS
ALBANY         CLOUDY    60  39  45 S16G25    30.02F                  
6HR MIN TEMP:  47; 6HR MAX TEMP:  60;                                

NEW YORK CITY  CLOUDY    51  41  68 NE10      30.11S                  
6HR MIN TEMP:  48; 6HR MAX TEMP:  53;                                

$$
 
ANZALL-191900-
MARINE OBSERVATIONS
  
STATION/POSITION TIME  TEMP    WIND        PRES    VSBY  WAVE
                       AIR SEA DIR/SP/G                  HT/PER
                 (UTC) (F)     (DEG/KT/KT) (MB)    (MI)  (FT/S)
BOSTON BUOY      1750   45     110/ 12/ 16 1021.0F         2/10
BUZZARDS BAY     1700   47     110/ 15/ 16 1021.3F
NANTUCKET SOUND  1740   46 47   90/ 10/ 12 1021.2S
MASS BAY-STELLWA NOT AVBL
ISLE OF SHOALS   1700   45     140/ 14/ 15 1021.0F
S OF BLOCK IS    1756      45                N/A           6/ 8
$$

......................KEY.........................
  SKY/WX - SKY CONDITION/PRESENT WEATHER
  TMP    - TEMPERATURE IN FAHRENHEIT
  DWPT   - DEWPOINT IN FAHRENHEIT
  RH     - RELATIVE HUMIDITY IN PERCENT
  WIND   - DIRECTION AND SPEED IN MPH
  PRES   - MEAN SEA LEVEL PRESSURE IN INCHES OF HG
  WCI    - WIND CHILL INDEX
  VSB    - VISIBILITY IN MILES
  HX     - HEAT INDEX
  TC     - TEMPERATURE IN CELSIUS
  VRB    - VARIABLE WIND DIRECTION
  N/A    - NOT AVAILABLE
  
      

Other recent Regional Weather Roundups

Mon Apr 22, 8:10am EDT

Mon Apr 22, 7:10am EDT

Mon Apr 22, 6:10am EDT

Mon Apr 22, 5:10am EDT

Mon Apr 22, 4:10am EDT

Mon Apr 22, 3:10am EDT

Mon Apr 22, 2:10am EDT

Mon Apr 22, 1:10am EDT

Mon Apr 22, 12:10am EDT

Sun Apr 21, 11:10pm EDT

Sun Apr 21, 10:10pm EDT

Sun Apr 21, 9:10pm EDT

Sun Apr 21, 8:10pm EDT

Sun Apr 21, 7:10pm EDT

Sun Apr 21, 6:10pm EDT

Sun Apr 21, 5:10pm EDT

Sun Apr 21, 4:10pm EDT

Sun Apr 21, 3:10pm EDT

Sun Apr 21, 2:10pm EDT

Sun Apr 21, 1:10pm EDT

Sun Apr 21, 12:10pm EDT

Sun Apr 21, 11:10am EDT

Sun Apr 21, 10:10am EDT

Sun Apr 21, 9:10am EDT

Sun Apr 21, 8:10am EDT

Sun Apr 21, 7:10am EDT

Sun Apr 21, 6:10am EDT

Sun Apr 21, 5:10am EDT

Sun Apr 21, 4:10am EDT

Sun Apr 21, 3:10am EDT

Sun Apr 21, 2:10am EDT

Sun Apr 21, 1:10am EDT

Sun Apr 21, 12:10am EDT

Sat Apr 20, 11:10pm EDT

Sat Apr 20, 10:10pm EDT

Sat Apr 20, 9:10pm EDT

Sat Apr 20, 8:10pm EDT

Sat Apr 20, 7:10pm EDT

Sat Apr 20, 6:10pm EDT

Sat Apr 20, 5:10pm EDT

Sat Apr 20, 4:10pm EDT

Sat Apr 20, 3:10pm EDT

Sat Apr 20, 2:10pm EDT

Sat Apr 20, 1:10pm EDT

Sat Apr 20, 12:10pm EDT

Sat Apr 20, 11:10am EDT

Sat Apr 20, 10:10am EDT

Sat Apr 20, 9:10am EDT

Sat Apr 20, 8:10am EDT

Sat Apr 20, 7:10am EDT

Sat Apr 20, 6:10am EDT

Sat Apr 20, 5:10am EDT

Sat Apr 20, 4:10am EDT

Sat Apr 20, 3:10am EDT

Sat Apr 20, 2:10am EDT

Sat Apr 20, 1:10am EDT

Sat Apr 20, 12:10am EDT

Fri Apr 19, 11:10pm EDT

Fri Apr 19, 10:10pm EDT

Fri Apr 19, 9:10pm EDT

Fri Apr 19, 8:10pm EDT

Fri Apr 19, 7:10pm EDT

Fri Apr 19, 6:10pm EDT

Fri Apr 19, 5:10pm EDT

Fri Apr 19, 4:10pm EDT

Fri Apr 19, 3:10pm EDT

Fri Apr 19, 1:10pm EDT

Fri Apr 19, 12:10pm EDT

Fri Apr 19, 11:10am EDT

Fri Apr 19, 10:10am EDT

Fri Apr 19, 9:10am EDT

Fri Apr 19, 8:10am EDT

Fri Apr 19, 7:10am EDT

Fri Apr 19, 6:10am EDT

Fri Apr 19, 5:10am EDT

Fri Apr 19, 4:10am EDT

Fri Apr 19, 3:10am EDT

Fri Apr 19, 2:10am EDT

Fri Apr 19, 1:10am EDT

Fri Apr 19, 12:10am EDT

Thu Apr 18, 11:10pm EDT

Thu Apr 18, 10:10pm EDT

Thu Apr 18, 9:10pm EDT

Thu Apr 18, 8:10pm EDT

Thu Apr 18, 7:10pm EDT

Thu Apr 18, 6:10pm EDT

Thu Apr 18, 5:10pm EDT

Thu Apr 18, 4:10pm EDT

Thu Apr 18, 3:10pm EDT

Thu Apr 18, 2:10pm EDT

Thu Apr 18, 1:10pm EDT

Thu Apr 18, 12:10pm EDT

Thu Apr 18, 11:10am EDT

Thu Apr 18, 10:10am EDT

Thu Apr 18, 9:10am EDT

Thu Apr 18, 8:10am EDT

Thu Apr 18, 7:10am EDT

Thu Apr 18, 6:10am EDT

Thu Apr 18, 5:10am EDT

Thu Apr 18, 4:10am EDT

Thu Apr 18, 3:10am EDT

Thu Apr 18, 2:10am EDT

Thu Apr 18, 1:10am EDT

Thu Apr 18, 12:10am EDT

Wed Apr 17, 11:10pm EDT

Wed Apr 17, 10:10pm EDT

Wed Apr 17, 9:10pm EDT

Wed Apr 17, 8:10pm EDT

Wed Apr 17, 7:10pm EDT

Wed Apr 17, 6:10pm EDT

Wed Apr 17, 5:10pm EDT

Wed Apr 17, 4:10pm EDT

Wed Apr 17, 3:10pm EDT

Wed Apr 17, 2:10pm EDT

Wed Apr 17, 1:10pm EDT

Wed Apr 17, 12:10pm EDT

Wed Apr 17, 11:10am EDT

Wed Apr 17, 10:10am EDT

Wed Apr 17, 9:10am EDT

Wed Apr 17, 8:10am EDT

Wed Apr 17, 7:10am EDT

Wed Apr 17, 6:10am EDT

Wed Apr 17, 5:10am EDT

Wed Apr 17, 4:10am EDT

Wed Apr 17, 3:10am EDT

Wed Apr 17, 2:10am EDT

Wed Apr 17, 1:10am EDT

Wed Apr 17, 12:10am EDT

Tue Apr 16, 11:10pm EDT

Tue Apr 16, 10:10pm EDT

Tue Apr 16, 9:10pm EDT

Tue Apr 16, 8:10pm EDT

Tue Apr 16, 7:10pm EDT

Tue Apr 16, 6:10pm EDT

Tue Apr 16, 5:10pm EDT

Tue Apr 16, 4:10pm EDT

Tue Apr 16, 3:10pm EDT

Tue Apr 16, 2:10pm EDT

Tue Apr 16, 1:10pm EDT

Tue Apr 16, 12:10pm EDT

Tue Apr 16, 11:10am EDT

Tue Apr 16, 10:10am EDT

Tue Apr 16, 9:10am EDT

Tue Apr 16, 8:10am EDT

Tue Apr 16, 7:10am EDT

Tue Apr 16, 6:10am EDT

Tue Apr 16, 5:10am EDT

Tue Apr 16, 4:10am EDT

Tue Apr 16, 3:10am EDT

Tue Apr 16, 2:10am EDT

Tue Apr 16, 1:10am EDT

Tue Apr 16, 12:10am EDT

Mon Apr 15, 11:10pm EDT

Mon Apr 15, 10:10pm EDT

Mon Apr 15, 9:10pm EDT

Mon Apr 15, 8:10pm EDT

Mon Apr 15, 7:10pm EDT

Mon Apr 15, 6:10pm EDT

Mon Apr 15, 5:10pm EDT

Mon Apr 15, 4:10pm EDT

Mon Apr 15, 3:10pm EDT

Mon Apr 15, 2:10pm EDT

Mon Apr 15, 1:10pm EDT

Mon Apr 15, 12:10pm EDT

Mon Apr 15, 11:10am EDT

Mon Apr 15, 10:10am EDT

Mon Apr 15, 9:10am EDT